owner,sensor,date,latitude,longitude,vertical_datum,sea_water_practical_salinity,qcFlag 
TABS,ioos:station:wmo:42049:1,2010-10-18T03:30:00Z,28.3507,-96.0058,2.0,30.8687,11111222 
TABS,ioos:station:wmo:42049:1,2010-10-18T04:00:00Z,28.3507,-96.0058,2.0,30.8972,11111222 
TABS,ioos:station:wmo:42049:1,2010-10-18T04:30:00Z,28.3507,-96.0058,2.0,30.8192,11111222 
TABS,ioos:station:wmo:42049:1,2010-10-18T05:00:00Z,28.3507,-96.0058,2.0,30.8144,11111222 
TABS,ioos:station:wmo:42049:1,2010-10-18T05:30:00Z,28.3507,-96.0058,2.0,30.8227,11111222 
TABS,ioos:station:wmo:42049:1,2010-10-18T06:00:00Z,28.3507,-96.0058,2.0,30.8319,11111222 
TABS,ioos:station:wmo:42049:1,2010-10-18T06:30:00Z,28.3507,-96.0058,2.0,30.8246,11111222 
TABS,ioos:station:wmo:42049:1,2010-10-18T07:00:00Z,28.3507,-96.0058,2.0,30.8487,11111222 
TABS,ioos:station:wmo:42049:1,2010-10-18T07:30:00Z,28.3507,-96.0058,2.0,30.8711,11111222 
TABS,ioos:station:wmo:42049:1,2010-10-18T08:00:00Z,28.3507,-96.0058,2.0,30.8677,11111222 
TABS,ioos:station:wmo:42049:1,2010-10-18T08:30:00Z,28.3507,-96.0058,2.0,30.8775,11111222 
TABS,ioos:station:wmo:42049:1,2010-10-18T09:00:00Z,28.3507,-96.0058,2.0,30.9117,11111222 
TABS,ioos:station:wmo:42049:1,2010-10-18T09:30:00Z,28.3507,-96.0058,2.0,30.9557,11111222 
TABS,ioos:station:wmo:42049:1,2010-10-18T10:00:00Z,28.3507,-96.0058,2.0,30.9873,11111222 
TABS,ioos:station:wmo:42049:1,2010-10-18T10:30:00Z,28.3507,-96.0058,2.0,31.0041,11111222 
TABS,ioos:station:wmo:42049:1,2010-10-18T11:00:00Z,28.3507,-96.0058,2.0,30.9861,11111222 
TABS,ioos:station:wmo:42049:1,2010-10-18T11:30:00Z,28.3507,-96.0058,2.0,31.0994,11111222 
TABS,ioos:station:wmo:42049:1,2010-10-18T12:00:00Z,28.3507,-96.0058,2.0,31.1318,11111222 
TABS,ioos:station:wmo:42049:1,2010-10-18T12:30:00Z,28.3507,-96.0058,2.0,31.1637,11111222 
TABS,ioos:station:wmo:42049:1,2010-10-18T13:00:00Z,28.3507,-96.0058,2.0,31.1656,11111222 
TABS,ioos:station:wmo:42049:1,2010-10-18T13:30:00Z,28.3507,-96.0058,2.0,31.1751,11111222 
TABS,ioos:station:wmo:42049:1,2010-10-18T14:00:00Z,28.3507,-96.0058,2.0,31.1662,11111222 
TABS,ioos:station:wmo:42049:1,2010-10-18T14:30:00Z,28.3507,-96.0058,2.0,31.1553,11111222 
TABS,ioos:station:wmo:42049:1,2010-10-18T15:00:00Z,28.3507,-96.0058,2.0,31.1534,11111222 
TABS,ioos:station:wmo:42049:1,2010-10-18T15:30:00Z,28.3507,-96.0058,2.0,31.1484,11111222 
TABS,ioos:station:wmo:42049:1,2010-10-18T16:00:00Z,28.3507,-96.0058,2.0,31.1654,11111222 
TABS,ioos:station:wmo:42049:1,2010-10-18T16:30:00Z,28.3507,-96.0058,2.0,31.1558,11111222 
TABS,ioos:station:wmo:42049:1,2010-10-18T17:00:00Z,28.3507,-96.0058,2.0,31.1624,11111222 
TABS,ioos:station:wmo:42049:1,2010-10-18T17:30:00Z,28.3507,-96.0058,2.0,31.1475,11111222 
TABS,ioos:station:wmo:42049:1,2010-10-18T18:00:00Z,28.3507,-96.0058,2.0,31.1732,11111222 
TABS,ioos:station:wmo:42049:1,2010-10-18T18:30:00Z,28.3507,-96.0058,2.0,31.1756,11111222 
TABS,ioos:station:wmo:42049:1,2010-10-18T19:00:00Z,28.3507,-96.0058,2.0,31.1023,11111222 
TABS,ioos:station:wmo:42049:1,2010-10-18T19:30:00Z,28.3507,-96.0058,2.0,31.1081,11111222 
TABS,ioos:station:wmo:42049:1,2010-10-18T20:00:00Z,28.3507,-96.0058,2.0,31.107,11111222 
TABS,ioos:station:wmo:42049:1,2010-10-18T20:30:00Z,28.3507,-96.0058,2.0,31.104,11111222 
TABS,ioos:station:wmo:42049:1,2010-10-18T21:00:00Z,28.3507,-96.0058,2.0,31.1235,11111222 
TABS,ioos:station:wmo:42049:1,2010-10-18T21:30:00Z,28.3507,-96.0058,2.0,31.0963,11111222 
TABS,ioos:station:wmo:42049:1,2010-10-18T22:00:00Z,28.3507,-96.0058,2.0,31.0876,11111222 
TABS,ioos:station:wmo:42049:1,2010-10-18T22:30:00Z,28.3507,-96.0058,2.0,31.0915,11111222 
TABS,ioos:station:wmo:42049:1,2010-10-18T23:00:00Z,28.3507,-96.0058,2.0,31.0851,11111222 
TABS,ioos:station:wmo:42049:1,2010-10-18T23:30:00Z,28.3507,-96.0058,2.0,31.0777,11111222 
TABS,ioos:station:wmo:42049:1,2010-10-19T00:00:00Z,28.3507,-96.0058,2.0,31.0671,11111222 
TABS,ioos:station:wmo:42049:1,2010-10-19T00:30:00Z,28.3507,-96.0058,2.0,31.0771,11111222 
TABS,ioos:station:wmo:42049:1,2010-10-19T01:00:00Z,28.3507,-96.0058,2.0,31.079,11111222 
TABS,ioos:station:wmo:42049:1,2010-10-19T01:30:00Z,28.3507,-96.0058,2.0,31.0819,11111222 
TABS,ioos:station:wmo:42049:1,2010-10-19T02:00:00Z,28.3507,-96.0058,2.0,31.0917,11111222 
TABS,ioos:station:wmo:42049:1,2010-10-19T02:30:00Z,28.3507,-96.0058,2.0,31.0919,11111222 
TABS,ioos:station:wmo:42049:1,2010-10-19T03:00:00Z,28.3507,-96.0058,2.0,31.0945,11111222 
TABS,ioos:station:wmo:42049:1,2010-10-19T03:30:00Z,28.3507,-96.0058,2.0,31.103,11111222 
TABS,ioos:station:wmo:42049:1,2010-10-19T04:00:00Z,28.3507,-96.0058,2.0,31.0937,11111222 
TABS,ioos:station:wmo:42049:1,2010-10-19T04:30:00Z,28.3507,-96.0058,2.0,31.109,11111222 
TABS,ioos:station:wmo:42049:1,2010-10-19T05:00:00Z,28.3507,-96.0058,2.0,31.1102,11111222 
TABS,ioos:station:wmo:42049:1,2010-10-19T05:30:00Z,28.3507,-96.0058,2.0,31.113,11111222 
TABS,ioos:station:wmo:42049:1,2010-10-19T06:00:00Z,28.3507,-96.0058,2.0,31.0991,11111222 
TABS,ioos:station:wmo:42049:1,2010-10-19T06:30:00Z,28.3507,-96.0058,2.0,31.1015,11111222 
TABS,ioos:station:wmo:42049:1,2010-10-19T07:00:00Z,28.3507,-96.0058,2.0,31.1064,11111222 
TABS,ioos:station:wmo:42049:1,2010-10-19T07:30:00Z,28.3507,-96.0058,2.0,31.1096,11111222 
TABS,ioos:station:wmo:42049:1,2010-10-19T08:00:00Z,28.3507,-96.0058,2.0,31.0991,11111222 
TABS,ioos:station:wmo:42049:1,2010-10-19T08:30:00Z,28.3507,-96.0058,2.0,31.1076,11111222 
TABS,ioos:station:wmo:42049:1,2010-10-19T09:00:00Z,28.3507,-96.0058,2.0,31.0955,11111222 
TABS,ioos:station:wmo:42049:1,2010-10-19T09:30:00Z,28.3507,-96.0058,2.0,31.0877,11111222 
TABS,ioos:station:wmo:42049:1,2010-10-19T10:00:00Z,28.3507,-96.0058,2.0,31.0742,11111222 
TABS,ioos:station:wmo:42049:1,2010-10-19T10:30:00Z,28.3507,-96.0058,2.0,31.076,11111222 
TABS,ioos:station:wmo:42049:1,2010-10-19T11:00:00Z,28.3507,-96.0058,2.0,31.0456,11111222 
TABS,ioos:station:wmo:42049:1,2010-10-19T11:30:00Z,28.3507,-96.0058,2.0,31.0387,11111222 
TABS,ioos:station:wmo:42049:1,2010-10-19T12:00:00Z,28.3507,-96.0058,2.0,31.0395,11111222 
TABS,ioos:station:wmo:42049:1,2010-10-19T12:30:00Z,28.3507,-96.0058,2.0,31.0484,11111222 
TABS,ioos:station:wmo:42049:1,2010-10-19T13:00:00Z,28.3507,-96.0058,2.0,31.0474,11111222 
TABS,ioos:station:wmo:42049:1,2010-10-19T13:30:00Z,28.3507,-96.0058,2.0,31.0518,11111222 
TABS,ioos:station:wmo:42049:1,2010-10-19T14:00:00Z,28.3507,-96.0058,2.0,31.056,11111222 
TABS,ioos:station:wmo:42049:1,2010-10-19T14:30:00Z,28.3507,-96.0058,2.0,31.0551,11111222 
TABS,ioos:station:wmo:42049:1,2010-10-19T15:00:00Z,28.3507,-96.0058,2.0,31.0569,11111222 
TABS,ioos:station:wmo:42049:1,2010-10-19T15:30:00Z,28.3507,-96.0058,2.0,31.05,11111222 
TABS,ioos:station:wmo:42049:1,2010-10-19T16:00:00Z,28.3507,-96.0058,2.0,31.0407,11111222 
TABS,ioos:station:wmo:42049:1,2010-10-19T16:30:00Z,28.3507,-96.0058,2.0,31.0367,11111222 
TABS,ioos:station:wmo:42049:1,2010-10-19T17:00:00Z,28.3507,-96.0058,2.0,31.0407,11111222 
TABS,ioos:station:wmo:42049:1,2010-10-19T17:30:00Z,28.3507,-96.0058,2.0,31.036,11111222 
TABS,ioos:station:wmo:42049:1,2010-10-19T18:00:00Z,28.3507,-96.0058,2.0,31.0364,11111222 
TABS,ioos:station:wmo:42049:1,2010-10-19T18:30:00Z,28.3507,-96.0058,2.0,31.0329,11111222 
TABS,ioos:station:wmo:42049:1,2010-10-19T19:00:00Z,28.3507,-96.0058,2.0,31.0339,11111222 
TABS,ioos:station:wmo:42049:1,2010-10-19T19:30:00Z,28.3507,-96.0058,2.0,31.042,11111222 
TABS,ioos:station:wmo:42049:1,2010-10-19T20:00:00Z,28.3507,-96.0058,2.0,31.0262,11111222 
TABS,ioos:station:wmo:42049:1,2010-10-19T20:30:00Z,28.3507,-96.0058,2.0,31.0169,11111222 
TABS,ioos:station:wmo:42049:1,2010-10-19T21:00:00Z,28.3507,-96.0058,2.0,31.0074,11111222 
TABS,ioos:station:wmo:42049:1,2010-10-19T21:30:00Z,28.3507,-96.0058,2.0,31.0147,11111222 
TABS,ioos:station:wmo:42049:1,2010-10-19T22:00:00Z,28.3507,-96.0058,2.0,31.0152,11111222 
TABS,ioos:station:wmo:42049:1,2010-10-19T22:30:00Z,28.3507,-96.0058,2.0,31.0123,11111222 
TABS,ioos:station:wmo:42049:1,2010-10-19T23:00:00Z,28.3507,-96.0058,2.0,31.0124,11111222 
TABS,ioos:station:wmo:42049:1,2010-10-19T23:30:00Z,28.3507,-96.0058,2.0,31.0142,11111222 
TABS,ioos:station:wmo:42049:1,2010-10-20T00:00:00Z,28.3507,-96.0058,2.0,31.0164,11111222 
TABS,ioos:station:wmo:42049:1,2010-10-20T00:30:00Z,28.3507,-96.0058,2.0,31.0261,11111222 
TABS,ioos:station:wmo:42049:1,2010-10-20T01:00:00Z,28.3507,-96.0058,2.0,31.025,11111222 
TABS,ioos:station:wmo:42049:1,2010-10-20T01:30:00Z,28.3507,-96.0058,2.0,31.0304,11111222 
TABS,ioos:station:wmo:42049:1,2010-10-20T02:00:00Z,28.3507,-96.0058,2.0,31.0325,11111222 
TABS,ioos:station:wmo:42049:1,2010-10-20T02:30:00Z,28.3507,-96.0058,2.0,31.0305,11111222 
TABS,ioos:station:wmo:42049:1,2010-10-20T03:00:00Z,28.3507,-96.0058,2.0,31.034,11111222 
TABS,ioos:station:wmo:42049:1,2010-10-20T03:30:00Z,28.3507,-96.0058,2.0,31.0382,11111222 
TABS,ioos:station:wmo:42049:1,2010-10-20T04:00:00Z,28.3507,-96.0058,2.0,31.0409,11111222 
TABS,ioos:station:wmo:42049:1,2010-10-20T04:30:00Z,28.3507,-96.0058,2.0,31.0425,11111222 
TABS,ioos:station:wmo:42049:1,2010-10-20T05:00:00Z,28.3507,-96.0058,2.0,31.0459,11111222 
TABS,ioos:station:wmo:42049:1,2010-10-20T05:30:00Z,28.3507,-96.0058,2.0,31.0457,11111222 
TABS,ioos:station:wmo:42049:1,2010-10-20T06:00:00Z,28.3507,-96.0058,2.0,31.0463,11111222 
TABS,ioos:station:wmo:42049:1,2010-10-20T06:30:00Z,28.3507,-96.0058,2.0,31.0497,11111222 
TABS,ioos:station:wmo:42049:1,2010-10-20T07:00:00Z,28.3507,-96.0058,2.0,31.0566,11111222 
TABS,ioos:station:wmo:42049:1,2010-10-20T07:30:00Z,28.3507,-96.0058,2.0,31.0447,11111222 
TABS,ioos:station:wmo:42049:1,2010-10-20T08:00:00Z,28.3507,-96.0058,2.0,31.0393,11111222 
TABS,ioos:station:wmo:42049:1,2010-10-20T08:30:00Z,28.3507,-96.0058,2.0,31.041,11111222 
TABS,ioos:station:wmo:42049:1,2010-10-20T09:00:00Z,28.3507,-96.0058,2.0,31.0445,11111222 
TABS,ioos:station:wmo:42049:1,2010-10-20T09:30:00Z,28.3507,-96.0058,2.0,31.0507,11111222 
TABS,ioos:station:wmo:42049:1,2010-10-20T10:00:00Z,28.3507,-96.0058,2.0,31.0509,11111222 
TABS,ioos:station:wmo:42049:1,2010-10-20T10:30:00Z,28.3507,-96.0058,2.0,31.0528,11111222 
TABS,ioos:station:wmo:42049:1,2010-10-20T11:00:00Z,28.3507,-96.0058,2.0,31.0579,11111222 
TABS,ioos:station:wmo:42049:1,2010-10-20T11:30:00Z,28.3507,-96.0058,2.0,31.0642,11111222 
TABS,ioos:station:wmo:42049:1,2010-10-20T12:00:00Z,28.3507,-96.0058,2.0,31.0614,11111222 
TABS,ioos:station:wmo:42049:1,2010-10-20T12:30:00Z,28.3507,-96.0058,2.0,31.0588,11111222 
TABS,ioos:station:wmo:42049:1,2010-10-20T13:00:00Z,28.3507,-96.0058,2.0,31.0616,11111222 
TABS,ioos:station:wmo:42049:1,2010-10-20T13:30:00Z,28.3507,-96.0058,2.0,31.0737,11111222 
TABS,ioos:station:wmo:42049:1,2010-10-20T14:00:00Z,28.3507,-96.0058,2.0,31.0618,11111222 
TABS,ioos:station:wmo:42049:1,2010-10-20T14:30:00Z,28.3507,-96.0058,2.0,31.063,11111222 
TABS,ioos:station:wmo:42049:1,2010-10-20T15:00:00Z,28.3507,-96.0058,2.0,31.0695,11111222 
TABS,ioos:station:wmo:42049:1,2010-10-20T15:30:00Z,28.3507,-96.0058,2.0,31.0621,11111222 
TABS,ioos:station:wmo:42049:1,2010-10-20T16:00:00Z,28.3507,-96.0058,2.0,31.0631,11111222 
TABS,ioos:station:wmo:42049:1,2010-10-20T16:30:00Z,28.3507,-96.0058,2.0,31.058,11111222 
TABS,ioos:station:wmo:42049:1,2010-10-20T17:00:00Z,28.3507,-96.0058,2.0,31.0692,11111222 
TABS,ioos:station:wmo:42049:1,2010-10-20T17:30:00Z,28.3507,-96.0058,2.0,31.0629,11111222 
TABS,ioos:station:wmo:42049:1,2010-10-20T18:00:00Z,28.3507,-96.0058,2.0,31.0669,11111222 
TABS,ioos:station:wmo:42049:1,2010-10-20T18:30:00Z,28.3507,-96.0058,2.0,31.0607,11111222 
TABS,ioos:station:wmo:42049:1,2010-10-20T19:00:00Z,28.3507,-96.0058,2.0,31.0651,11111222 
TABS,ioos:station:wmo:42049:1,2010-10-20T19:30:00Z,28.3507,-96.0058,2.0,31.0738,11111222 
TABS,ioos:station:wmo:42049:1,2010-10-20T20:00:00Z,28.3507,-96.0058,2.0,31.0523,11111222 
TABS,ioos:station:wmo:42049:1,2010-10-20T20:30:00Z,28.3507,-96.0058,2.0,31.0656,11111222 
TABS,ioos:station:wmo:42049:1,2010-10-20T21:00:00Z,28.3507,-96.0058,2.0,31.0698,11111222 
TABS,ioos:station:wmo:42049:1,2010-10-20T21:30:00Z,28.3507,-96.0058,2.0,31.0598,11111222 
TABS,ioos:station:wmo:42049:1,2010-10-20T22:00:00Z,28.3507,-96.0058,2.0,31.0879,11111222 
TABS,ioos:station:wmo:42049:1,2010-10-20T22:30:00Z,28.3507,-96.0058,2.0,31.0704,11111222 
TABS,ioos:station:wmo:42049:1,2010-10-20T23:00:00Z,28.3507,-96.0058,2.0,31.0713,11111222 
TABS,ioos:station:wmo:42049:1,2010-10-20T23:30:00Z,28.3507,-96.0058,2.0,31.0799,11111222 
TABS,ioos:station:wmo:42049:1,2010-10-21T00:00:00Z,28.3507,-96.0058,2.0,31.0697,11111222 
TABS,ioos:station:wmo:42049:1,2010-10-21T00:30:00Z,28.3507,-96.0058,2.0,31.0688,11111222 
TABS,ioos:station:wmo:42049:1,2010-10-21T01:00:00Z,28.3507,-96.0058,2.0,31.0713,11111222 
TABS,ioos:station:wmo:42049:1,2010-10-21T01:30:00Z,28.3507,-96.0058,2.0,31.0704,11111222 
TABS,ioos:station:wmo:42049:1,2010-10-21T02:00:00Z,28.3507,-96.0058,2.0,31.0733,11111222 
TABS,ioos:station:wmo:42049:1,2010-10-21T02:30:00Z,28.3507,-96.0058,2.0,31.0775,11111222 
TABS,ioos:station:wmo:42049:1,2010-10-21T03:00:00Z,28.3507,-96.0058,2.0,31.0784,11111222 
TABS,ioos:station:wmo:42049:1,2010-10-21T03:30:00Z,28.3507,-96.0058,2.0,31.0777,11111222 
TABS,ioos:station:wmo:42049:1,2010-10-21T04:00:00Z,28.3507,-96.0058,2.0,31.0803,11111222 
TABS,ioos:station:wmo:42049:1,2010-10-21T04:30:00Z,28.3507,-96.0058,2.0,31.0867,11111222 
TABS,ioos:station:wmo:42049:1,2010-10-21T05:00:00Z,28.3507,-96.0058,2.0,31.1035,11111222 
TABS,ioos:station:wmo:42049:1,2010-10-21T05:30:00Z,28.3507,-96.0058,2.0,31.1532,11111222 
TABS,ioos:station:wmo:42049:1,2010-10-21T06:00:00Z,28.3507,-96.0058,2.0,31.1961,11111222 
TABS,ioos:station:wmo:42049:1,2010-10-21T06:30:00Z,28.3507,-96.0058,2.0,31.2132,11111222 
TABS,ioos:station:wmo:42049:1,2010-10-21T07:00:00Z,28.3507,-96.0058,2.0,31.2736,11111222 
TABS,ioos:station:wmo:42049:1,2010-10-21T07:30:00Z,28.3507,-96.0058,2.0,31.3514,11111222 
TABS,ioos:station:wmo:42049:1,2010-10-21T08:00:00Z,28.3507,-96.0058,2.0,31.4286,11111222 
TABS,ioos:station:wmo:42049:1,2010-10-21T08:30:00Z,28.3507,-96.0058,2.0,31.505,11111222 
TABS,ioos:station:wmo:42049:1,2010-10-21T09:00:00Z,28.3507,-96.0058,2.0,31.512,11111222 
TABS,ioos:station:wmo:42049:1,2010-10-21T09:30:00Z,28.3507,-96.0058,2.0,31.4991,11111222 
TABS,ioos:station:wmo:42049:1,2010-10-21T10:00:00Z,28.3507,-96.0058,2.0,31.5283,11111222 
TABS,ioos:station:wmo:42049:1,2010-10-21T10:30:00Z,28.3507,-96.0058,2.0,31.5823,11111222 
TABS,ioos:station:wmo:42049:1,2010-10-21T11:00:00Z,28.3507,-96.0058,2.0,31.6162,11111222 
TABS,ioos:station:wmo:42049:1,2010-10-21T11:30:00Z,28.3507,-96.0058,2.0,31.6864,11111222 
TABS,ioos:station:wmo:42049:1,2010-10-21T12:00:00Z,28.3507,-96.0058,2.0,31.721,11111222 
TABS,ioos:station:wmo:42049:1,2010-10-21T12:30:00Z,28.3507,-96.0058,2.0,31.7617,11111222 
TABS,ioos:station:wmo:42049:1,2010-10-21T13:00:00Z,28.3507,-96.0058,2.0,31.8144,11111222 
TABS,ioos:station:wmo:42049:1,2010-10-21T13:30:00Z,28.3507,-96.0058,2.0,31.8572,11111222 
TABS,ioos:station:wmo:42049:1,2010-10-21T14:00:00Z,28.3507,-96.0058,2.0,31.9062,11111222 
TABS,ioos:station:wmo:42049:1,2010-10-21T14:30:00Z,28.3507,-96.0058,2.0,31.8937,11111222 
TABS,ioos:station:wmo:42049:1,2010-10-21T15:00:00Z,28.3507,-96.0058,2.0,31.8539,11111222 
TABS,ioos:station:wmo:42049:1,2010-10-21T15:30:00Z,28.3507,-96.0058,2.0,31.8535,11111222 
TABS,ioos:station:wmo:42049:1,2010-10-21T16:00:00Z,28.3507,-96.0058,2.0,31.8388,11111222 
TABS,ioos:station:wmo:42049:1,2010-10-21T16:30:00Z,28.3507,-96.0058,2.0,31.8212,11111222 
TABS,ioos:station:wmo:42049:1,2010-10-21T17:00:00Z,28.3507,-96.0058,2.0,31.8243,11111222 
TABS,ioos:station:wmo:42049:1,2010-10-21T17:30:00Z,28.3507,-96.0058,2.0,31.8081,11111222 
TABS,ioos:station:wmo:42049:1,2010-10-21T18:00:00Z,28.3507,-96.0058,2.0,31.8104,11111222 
TABS,ioos:station:wmo:42049:1,2010-10-21T18:30:00Z,28.3507,-96.0058,2.0,31.8141,11111222 
TABS,ioos:station:wmo:42049:1,2010-10-21T19:00:00Z,28.3507,-96.0058,2.0,31.8568,11111222 
TABS,ioos:station:wmo:42049:1,2010-10-21T19:30:00Z,28.3507,-96.0058,2.0,31.8541,11111222 
TABS,ioos:station:wmo:42049:1,2010-10-21T20:00:00Z,28.3507,-96.0058,2.0,31.8516,11111222 
TABS,ioos:station:wmo:42049:1,2010-10-21T20:30:00Z,28.3507,-96.0058,2.0,31.7577,11111222 
TABS,ioos:station:wmo:42049:1,2010-10-21T21:00:00Z,28.3507,-96.0058,2.0,31.724,11111222 
TABS,ioos:station:wmo:42049:1,2010-10-21T21:30:00Z,28.3507,-96.0058,2.0,31.6655,11111222 
TABS,ioos:station:wmo:42049:1,2010-10-21T22:00:00Z,28.3507,-96.0058,2.0,31.6571,11111222 
TABS,ioos:station:wmo:42049:1,2010-10-21T22:30:00Z,28.3507,-96.0058,2.0,31.6284,11111222 
TABS,ioos:station:wmo:42049:1,2010-10-21T23:00:00Z,28.3507,-96.0058,2.0,31.6294,11111222 
TABS,ioos:station:wmo:42049:1,2010-10-21T23:30:00Z,28.3507,-96.0058,2.0,31.6191,11111222 
TABS,ioos:station:wmo:42049:1,2010-10-22T00:00:00Z,28.3507,-96.0058,2.0,31.6319,11111222 
TABS,ioos:station:wmo:42049:1,2010-10-22T00:30:00Z,28.3507,-96.0058,2.0,31.6106,11111222 
TABS,ioos:station:wmo:42049:1,2010-10-22T01:00:00Z,28.3507,-96.0058,2.0,31.6265,11111222 
TABS,ioos:station:wmo:42049:1,2010-10-22T01:30:00Z,28.3507,-96.0058,2.0,31.6421,11111222 
TABS,ioos:station:wmo:42049:1,2010-10-22T02:00:00Z,28.3507,-96.0058,2.0,31.6465,11111222 
TABS,ioos:station:wmo:42049:1,2010-10-22T02:30:00Z,28.3507,-96.0058,2.0,31.6749,11111222 
TABS,ioos:station:wmo:42049:1,2010-10-22T03:00:00Z,28.3507,-96.0058,2.0,31.6713,11111222 
TABS,ioos:station:wmo:42049:1,2010-10-22T03:30:00Z,28.3507,-96.0058,2.0,31.683,11111222 
TABS,ioos:station:wmo:42049:1,2010-10-22T04:00:00Z,28.3507,-96.0058,2.0,31.701,11111222 
TABS,ioos:station:wmo:42049:1,2010-10-22T04:30:00Z,28.3507,-96.0058,2.0,31.7258,11111222 
TABS,ioos:station:wmo:42049:1,2010-10-22T05:00:00Z,28.3507,-96.0058,2.0,31.7422,11111222 
TABS,ioos:station:wmo:42049:1,2010-10-22T05:30:00Z,28.3507,-96.0058,2.0,31.7853,11111222 
TABS,ioos:station:wmo:42049:1,2010-10-22T06:00:00Z,28.3507,-96.0058,2.0,31.8261,11111222 
TABS,ioos:station:wmo:42049:1,2010-10-22T06:30:00Z,28.3507,-96.0058,2.0,31.9273,11111222 
TABS,ioos:station:wmo:42049:1,2010-10-22T07:00:00Z,28.3507,-96.0058,2.0,32.0185,11111222 
TABS,ioos:station:wmo:42049:1,2010-10-22T07:30:00Z,28.3507,-96.0058,2.0,32.0459,11111222 
TABS,ioos:station:wmo:42049:1,2010-10-22T08:00:00Z,28.3507,-96.0058,2.0,32.0751,11111222 
TABS,ioos:station:wmo:42049:1,2010-10-22T08:30:00Z,28.3507,-96.0058,2.0,32.0837,11111222 
TABS,ioos:station:wmo:42049:1,2010-10-22T09:00:00Z,28.3507,-96.0058,2.0,32.1217,11111222 
TABS,ioos:station:wmo:42049:1,2010-10-22T09:30:00Z,28.3507,-96.0058,2.0,32.1332,11111222 
TABS,ioos:station:wmo:42049:1,2010-10-22T10:00:00Z,28.3507,-96.0058,2.0,32.1034,11111222 
TABS,ioos:station:wmo:42049:1,2010-10-22T10:30:00Z,28.3507,-96.0058,2.0,32.0848,11111222 
TABS,ioos:station:wmo:42049:1,2010-10-22T11:00:00Z,28.3507,-96.0058,2.0,32.1163,11111222 
TABS,ioos:station:wmo:42049:1,2010-10-22T11:30:00Z,28.3507,-96.0058,2.0,32.1315,11111222 
TABS,ioos:station:wmo:42049:1,2010-10-22T12:00:00Z,28.3507,-96.0058,2.0,32.1409,11111222 
TABS,ioos:station:wmo:42049:1,2010-10-22T12:30:00Z,28.3507,-96.0058,2.0,32.1631,11111222 
TABS,ioos:station:wmo:42049:1,2010-10-22T13:00:00Z,28.3507,-96.0058,2.0,32.1772,11111222 
TABS,ioos:station:wmo:42049:1,2010-10-22T13:30:00Z,28.3507,-96.0058,2.0,32.1683,11111222 
TABS,ioos:station:wmo:42049:1,2010-10-22T14:00:00Z,28.3507,-96.0058,2.0,32.1607,11111222 
TABS,ioos:station:wmo:42049:1,2010-10-22T14:30:00Z,28.3507,-96.0058,2.0,32.1551,11111222 
TABS,ioos:station:wmo:42049:1,2010-10-22T15:00:00Z,28.3507,-96.0058,2.0,32.1497,11111222 
TABS,ioos:station:wmo:42049:1,2010-10-22T15:30:00Z,28.3507,-96.0058,2.0,32.1388,11111222 
TABS,ioos:station:wmo:42049:1,2010-10-22T16:00:00Z,28.3507,-96.0058,2.0,32.1268,11111222 
TABS,ioos:station:wmo:42049:1,2010-10-22T16:30:00Z,28.3507,-96.0058,2.0,32.1258,11111222 
TABS,ioos:station:wmo:42049:1,2010-10-22T17:00:00Z,28.3507,-96.0058,2.0,32.1317,11111222 
TABS,ioos:station:wmo:42049:1,2010-10-22T17:30:00Z,28.3507,-96.0058,2.0,32.1382,11111222 
TABS,ioos:station:wmo:42049:1,2010-10-22T18:00:00Z,28.3507,-96.0058,2.0,32.1359,11111222 
TABS,ioos:station:wmo:42049:1,2010-10-22T18:30:00Z,28.3507,-96.0058,2.0,32.1458,11111222 
TABS,ioos:station:wmo:42049:1,2010-10-22T19:00:00Z,28.3507,-96.0058,2.0,32.1514,11111222 
TABS,ioos:station:wmo:42049:1,2010-10-22T19:30:00Z,28.3507,-96.0058,2.0,32.1543,11111222 
TABS,ioos:station:wmo:42049:1,2010-10-22T20:00:00Z,28.3507,-96.0058,2.0,32.1775,11111222 
TABS,ioos:station:wmo:42049:1,2010-10-22T20:30:00Z,28.3507,-96.0058,2.0,32.1921,11111222 
TABS,ioos:station:wmo:42049:1,2010-10-22T21:00:00Z,28.3507,-96.0058,2.0,32.2145,11111222 
TABS,ioos:station:wmo:42049:1,2010-10-22T21:30:00Z,28.3507,-96.0058,2.0,32.231,11111222 
TABS,ioos:station:wmo:42049:1,2010-10-22T22:00:00Z,28.3507,-96.0058,2.0,32.2472,11111222 
TABS,ioos:station:wmo:42049:1,2010-10-22T22:30:00Z,28.3507,-96.0058,2.0,32.2585,11111222 
TABS,ioos:station:wmo:42049:1,2010-10-22T23:00:00Z,28.3507,-96.0058,2.0,32.2581,11111222 
TABS,ioos:station:wmo:42049:1,2010-10-22T23:30:00Z,28.3507,-96.0058,2.0,32.2678,11111222 
TABS,ioos:station:wmo:42049:1,2010-10-23T00:00:00Z,28.3507,-96.0058,2.0,32.2716,11111222 
TABS,ioos:station:wmo:42049:1,2010-10-23T00:30:00Z,28.3507,-96.0058,2.0,32.285,11111222 
TABS,ioos:station:wmo:42049:1,2010-10-23T01:00:00Z,28.3507,-96.0058,2.0,32.2954,11111222 
TABS,ioos:station:wmo:42049:1,2010-10-23T01:30:00Z,28.3507,-96.0058,2.0,32.3179,11111222 
TABS,ioos:station:wmo:42049:1,2010-10-23T02:00:00Z,28.3507,-96.0058,2.0,32.3305,11111222 
TABS,ioos:station:wmo:42049:1,2010-10-23T02:30:00Z,28.3507,-96.0058,2.0,32.3233,11111222 
TABS,ioos:station:wmo:42049:1,2010-10-23T03:00:00Z,28.3507,-96.0058,2.0,32.3232,11111222 
TABS,ioos:station:wmo:42049:1,2010-10-23T03:30:00Z,28.3507,-96.0058,2.0,32.3956,11111222 
TABS,ioos:station:wmo:42049:1,2010-10-23T04:00:00Z,28.3507,-96.0058,2.0,32.4002,11111222 
TABS,ioos:station:wmo:42049:1,2010-10-23T04:30:00Z,28.3507,-96.0058,2.0,32.3921,11111222 
TABS,ioos:station:wmo:42049:1,2010-10-23T05:00:00Z,28.3507,-96.0058,2.0,32.3839,11111222 
TABS,ioos:station:wmo:42049:1,2010-10-23T05:30:00Z,28.3507,-96.0058,2.0,32.3953,11111222 
TABS,ioos:station:wmo:42049:1,2010-10-23T06:00:00Z,28.3507,-96.0058,2.0,32.4228,11111222 
TABS,ioos:station:wmo:42049:1,2010-10-23T06:30:00Z,28.3507,-96.0058,2.0,32.4425,11111222 
TABS,ioos:station:wmo:42049:1,2010-10-23T07:00:00Z,28.3507,-96.0058,2.0,32.5131,11111222 
TABS,ioos:station:wmo:42049:1,2010-10-23T07:30:00Z,28.3507,-96.0058,2.0,32.6192,11111222 
TABS,ioos:station:wmo:42049:1,2010-10-23T08:00:00Z,28.3507,-96.0058,2.0,32.6655,11111222 
TABS,ioos:station:wmo:42049:1,2010-10-23T08:30:00Z,28.3507,-96.0058,2.0,32.7249,11111222 
TABS,ioos:station:wmo:42049:1,2010-10-23T09:00:00Z,28.3507,-96.0058,2.0,32.777,11111222 
TABS,ioos:station:wmo:42049:1,2010-10-23T09:30:00Z,28.3507,-96.0058,2.0,32.8632,11111222 
TABS,ioos:station:wmo:42049:1,2010-10-23T10:00:00Z,28.3507,-96.0058,2.0,32.8563,11111222 
TABS,ioos:station:wmo:42049:1,2010-10-23T10:30:00Z,28.3507,-96.0058,2.0,32.8646,11111222 
TABS,ioos:station:wmo:42049:1,2010-10-23T11:00:00Z,28.3507,-96.0058,2.0,32.8384,11111222 
TABS,ioos:station:wmo:42049:1,2010-10-23T11:30:00Z,28.3507,-96.0058,2.0,32.833,11111222 
TABS,ioos:station:wmo:42049:1,2010-10-23T12:00:00Z,28.3507,-96.0058,2.0,32.8401,11111222 
TABS,ioos:station:wmo:42049:1,2010-10-23T12:30:00Z,28.3507,-96.0058,2.0,32.7388,11111222 
TABS,ioos:station:wmo:42049:1,2010-10-23T13:00:00Z,28.3507,-96.0058,2.0,32.6864,11111222 
TABS,ioos:station:wmo:42049:1,2010-10-23T13:30:00Z,28.3507,-96.0058,2.0,32.6467,11111222 
TABS,ioos:station:wmo:42049:1,2010-10-23T14:00:00Z,28.3507,-96.0058,2.0,32.6401,11111222 
TABS,ioos:station:wmo:42049:1,2010-10-23T14:30:00Z,28.3507,-96.0058,2.0,32.6685,11111222 
TABS,ioos:station:wmo:42049:1,2010-10-23T15:00:00Z,28.3507,-96.0058,2.0,32.6477,11111222 
TABS,ioos:station:wmo:42049:1,2010-10-23T15:30:00Z,28.3507,-96.0058,2.0,32.6595,11111222 